Theta_e
322 322 322 322 322 321 322 322 322 323 323 323 323 324 324 323 323 323 323 323 323 323 323 323 323 323 322 321 321 321 319 325 326 324 323 323 339 345 345 349 350 356 357 348 340 338 336 338 337 344 340 339 337 329 338 335 339 332 322 316 314 315 314 317 317 320 322 322 328 332 333 333 331 337 339 342 339 339 341 341 345 347 346 347 348 351 351 351
321 321 322 321 321 321 322 322 322 322 322 323 323 323 323 323 323 322 323 323 323 323 323 323 323 323 322 320 320 320 320 325 324 323 322 348 346 352 356 349 355 353 354 334 330 333 332 333 331 336 336 330 331 325 329 330 336 327 319 317 313 316 317 322 322 323 322 323 330 332 333 332 333 336 338 334 335 339 339 341 343 342 346 348 349 349 350 349
321 321 321 321 320 321 321 322 322 322 322 322 323 323 322 322 322 322 322 322 322 323 322 322 322 322 321 320 320 319 322 323 325 318 322 345 355 357 354 350 353 354 337 327 327 327 324 327 330 332 331 325 323 321 323 325 329 324 320 314 315 320 322 324 325 323 326 328 329 330 332 332 334 335 338 331 332 336 335 337 338 339 340 343 346 349 348 348
321 321 321 320 320 321 321 321 321 321 322 322 322 322 321 321 321 321 321 322 322 322 322 322 321 321 321 320 320 322 323 324 313 317 335 349 351 354 352 350 352 352 338 330 326 326 330 329 330 329 324 320 320 321 319 323 324 321 319 315 317 322 321 327 328 329 328 330 330 330 332 331 333 334 333 330 329 330 334 341 339 338 341 342 344 346 348 348
321 320 320 320 320 320 320 321 321 321 321 322 322 321 321 321 321 321 321 321 321 321 321 321 321 321 320 320 318 326 323 309 311 332 348 350 355 350 351 354 352 339 337 328 328 330 331 328 326 326 321 318 319 319 319 320 321 321 320 321 323 325 322 329 330 331 330 332 330 330 328 329 335 335 333 332 326 328 335 340 344 344 344 343 343 345 347 347
320 320 319 319 320 320 320 321 321 321 321 321 321 321 321 320 320 320 320 320 321 321 320 321 320 321 321 320 323 326 320 302 317 335 362 360 354 353 352 354 355 342 331 329 327 327 326 325 326 322 318 318 317 316 318 319 321 316 323 326 328 326 326 332 332 332 331 329 328 329 331 333 334 334 337 337 334 336 343 346 346 346 347 347 347 346 346 346
319 319 319 319 320 320 320 320 320 320 320 320 320 320 320 320 319 319 319 319 320 320 320 320 320 320 320 320 323 324 316 315 319 339 363 360 354 352 355 358 355 334 328 324 324 322 323 323 324 320 317 316 317 317 318 318 320 320 319 327 326 328 329 333 332 332 330 328 328 331 332 328 331 331 339 337 340 343 346 348 347 347 349 348 346 345 344 346
318 318 319 319 319 319 319 319 319 319 320 319 320 319 319 319 319 319 319 319 320 320 321 321 321 320 318 324 326 315 314 314 326 352 363 361 354 346 355 338 333 329 327 322 320 322 323 322 322 320 317 316 317 317 319 318 321 319 322 328 330 331 333 333 332 331 330 329 331 330 329 332 333 334 338 337 341 344 346 347 347 348 348 348 347 346 347 348
318 318 318 319 319 319 319 319 319 319 319 319 319 319 318 318 318 319 319 319 320 320 320 319 320 320 322 326 321 314 312 319 329 347 361 352 346 337 336 329 330 326 324 323 323 325 324 323 321 321 315 316 318 317 319 319 317 323 326 328 330 330 332 332 330 329 329 330 330 329 331 335 337 340 336 339 342 345 347 347 346 347 346 345 346 347 348 349
317 318 318 318 318 319 319 319 319 319 319 319 318 318 318 318 318 319 319 319 320 320 319 320 320 320 323 328 317 308 320 341 345 346 347 348 340 336 332 326 326 325 321 321 323 325 324 324 322 321 321 317 318 317 319 319 320 331 329 329 329 331 331 330 327 328 329 328 331 330 331 332 336 331 329 340 343 345 345 345 346 345 345 345 344 346 349 348
317 317 318 318 318 318 318 318 318 318 319 318 318 318 317 318 319 319 319 319 319 320 321 320 321 320 325 325 313 308 331 343 343 341 345 346 338 330 327 326 326 324 321 322 324 327 326 325 324 323 321 317 319 317 319 325 331 331 331 331 331 331 330 329 331 331 333 331 333 332 330 333 332 329 330 339 342 343 342 343 343 343 344 345 345 348 350 349
317 317 317 318 318 318 318 318 318 318 318 318 317 317 317 319 319 318 318 320 319 320 320 321 321 326 327 323 313 315 328 333 343 338 339 337 331 328 327 326 326 323 321 321 326 328 329 326 326 320 316 321 316 323 326 332 332 331 330 325 328 329 326 327 326 328 331 328 332 331 327 324 325 328 338 341 342 342 341 341 342 343 344 345 346 347 349 349
317 317 317 317 317 317 317 318 318 317 317 317 316 316 317 319 318 318 319 319 320 320 321 323 324 328 331 312 314 322 327 342 342 335 334 334 332 331 328 328 327 325 323 324 326 329 328 328 326 319 320 319 317 316 329 334 330 329 325 325 324 322 321 326 330 328 326 329 332 329 312 318 327 335 339 342 341 341 339 339 340 342 344 347 347 347 348 350
317 317 317 317 317 317 317 317 317 317 316 316 316 315 316 319 319 319 319 320 321 321 322 324 329 331 329 317 324 333 335 342 341 334 331 332 327 327 327 327 328 328 329 328 330 331 329 327 326 321 322 319 318 330 329 329 329 320 323 323 318 317 317 327 327 327 322 330 333 329 313 317 329 335 340 342 342 339 337 337 338 340 342 345 347 347 348 350
316 316 316 317 316 316 317 317 316 316 316 315 315 315 316 318 320 321 321 322 321 323 324 327 331 331 326 323 333 338 346 342 333 332 333 330 326 324 326 327 326 329 333 331 329 331 329 327 322 318 317 324 327 325 320 322 323 322 316 313 317 314 317 324 329 326 321 326 330 323 314 316 327 334 340 342 341 339 337 335 337 338 340 342 346 347 348 349
316 316 316 316 316 316 316 316 315 315 315 314 314 314 318 319 322 323 324 327 324 324 329 330 331 329 321 315 331 345 335 328 326 332 333 332 327 323 326 326 327 329 331 329 331 329 327 325 319 319 319 323 322 318 316 316 317 319 314 312 312 314 317 322 326 328 331 327 327 324 314 320 326 335 339 340 339 337 335 334 335 337 339 341 343 345 347 348
315 315 315 316 316 316 316 315 314 315 314 314 313 316 319 323 324 325 326 326 327 329 330 332 332 330 319 323 333 328 324 327 331 329 328 332 329 327 326 325 324 326 328 327 327 326 323 320 320 319 320 317 319 317 312 310 312 313 315 313 315 313 316 314 324 327 328 327 320 322 318 321 327 335 339 340 338 337 334 334 334 336 338 342 343 344 345 347
315 315 315 315 316 316 315 314 314 314 313 312 312 315 324 325 326 325 325 328 332 330 331 334 330 327 317 322 315 319 327 325 326 327 327 329 330 327 324 321 324 325 325 322 324 320 321 317 318 313 315 315 315 314 309 306 310 310 311 311 312 315 316 314 317 323 327 325 321 321 321 323 328 335 336 338 339 337 335 334 334 335 337 341 342 343 344 345
315 315 315 315 315 315 314 314 313 313 313 312 314 316 320 324 328 330 327 331 327 328 316 322 320 311 308 316 321 323 325 327 330 327 324 326 328 328 326 326 325 322 318 317 317 319 319 317 316 314 309 311 311 313 311 312 314 313 312 313 313 311 313 313 317 326 326 322 320 320 319 323 328 332 335 337 338 337 336 336 336 337 337 340 341 342 343 344
315 315 314 315 315 314 314 313 313 312 311 313 325 328 324 327 325 322 323 326 322 319 319 320 322 321 316 319 319 324 327 329 322 324 326 328 326 324 322 323 321 320 317 313 315 317 319 312 309 309 311 312 313 314 314 314 314 315 314 313 313 312 314 317 319 327 328 322 320 320 321 323 326 331 335 336 337 338 338 336 337 336 336 337 339 340 342 344
314 314 314 314 314 314 313 312 312 312 311 314 320 324 318 318 313 312 318 320 324 325 322 321 321 320 319 322 323 322 319 321 324 322 325 330 326 321 318 320 317 313 315 316 314 318 316 311 310 312 313 314 314 315 314 314 313 313 312 311 311 313 311 317 322 329 329 321 321 326 323 323 327 330 334 338 335 333 336 336 337 336 337 337 339 340 342 346
314 314 314 314 313 313 313 312 312 311 310 318 324 323 322 323 325 326 322 315 321 323 322 322 324 321 325 324 326 325 322 318 318 320 328 329 323 316 317 316 313 310 315 315 315 312 311 309 312 314 316 317 316 315 314 314 311 312 311 310 310 311 316 320 323 326 328 323 321 326 323 325 329 332 336 336 333 333 335 337 337 338 338 339 340 342 345 347
314 314 314 314 313 312 312 311 311 309 319 325 324 323 323 328 331 332 326 320 316 322 321 321 319 320 320 324 325 326 317 315 313 319 322 326 319 317 317 314 312 313 314 313 309 309 306 310 314 316 316 314 314 314 313 313 313 311 310 310 308 312 312 310 321 324 327 320 320 327 321 327 332 337 335 337 334 339 342 341 341 341 342 340 339 342 345 346
314 314 314 313 312 311 311 310 309 316 327 317 313 317 328 329 332 329 322 315 314 319 320 321 321 320 319 318 324 322 317 316 317 315 325 324 316 319 315 314 313 313 310 311 310 309 308 312 317 316 315 314 312 313 313 311 310 312 312 311 310 312 313 311 318 323 326 325 328 326 321 325 328 326 330 336 341 339 339 341 343 344 344 345 344 344 346 345
314 313 314 312 311 310 309 308 320 320 316 316 318 325 328 330 333 330 320 318 317 316 324 321 322 322 322 327 327 319 319 318 318 321 324 322 317 316 314 316 314 310 311 311 311 310 311 314 316 313 313 314 313 311 311 311 309 310 312 312 312 312 313 313 323 322 317 317 323 322 311 312 323 324 322 329 335 335 338 338 339 343 343 346 345 347 348 348
314 313 313 311 311 310 308 315 321 314 314 314 324 328 327 326 330 333 322 311 305 314 316 311 323 315 327 319 322 320 319 313 320 321 323 323 326 317 317 314 315 308 310 310 311 313 313 314 315 312 312 313 312 311 313 313 310 308 310 314 313 313 313 315 320 316 309 307 319 323 309 304 317 322 325 328 330 331 337 338 336 340 344 343 343 344 346 346
313 313 313 311 311 309 311 312 318 315 312 318 328 329 325 326 339 330 316 310 303 312 309 317 318 317 322 321 321 321 305 309 321 323 321 325 319 323 313 311 312 315 314 315 312 309 314 313 312 313 313 312 311 310 313 313 310 308 313 316 314 314 316 319 318 313 311 315 323 323 318 308 308 317 327 330 330 330 333 336 337 336 342 340 342 342 347 346
313 313 312 311 310 309 312 314 315 312 312 318 323 323 324 332 337 331 314 300 298 314 310 312 314 321 319 321 322 315 315 318 311 317 322 324 323 317 315 311 310 313 314 313 304 313 314 312 312 311 312 311 310 312 315 315 311 312 316 316 314 316 318 317 315 312 315 315 315 320 321 311 307 315 326 329 326 328 330 333 336 337 340 342 341 342 345 348
312 312 312 311 309 309 313 313 316 313 318 321 321 320 324 336 330 318 309 299 311 311 318 311 319 317 317 321 317 317 316 317 311 317 322 324 323 317 311 315 314 315 315 314 310 310 314 314 314 314 312 310 315 315 315 315 311 315 322 323 322 321 319 317 314 313 314 311 305 312 318 307 305 312 322 327 325 325 328 332 334 337 339 341 341 342 344 348
312 312 311 311 310 317 317 318 314 317 320 320 319 323 329 329 322 307 300 294 312 304 312 311 312 310 316 312 313 314 313 315 317 318 319 317 318 318 316 319 316 314 312 314 312 314 314 319 322 314 313 316 314 313 314 313 316 321 321 318 318 317 317 318 316 314 311 304 306 310 313 309 301 310 312 320 324 326 327 330 333 337 340 342 343 343 343 347
311 311 310 310 310 314 313 308 316 320 321 323 323 326 330 324 313 304 296 304 310 309 312 310 309 315 312 311 308 313 313 314 314 316 313 318 315 316 315 313 317 313 311 311 311 311 313 314 314 316 314 315 316 313 314 316 319 320 315 314 315 314 317 314 312 315 304 301 309 312 312 312 301 306 313 319 326 325 324 324 331 333 337 341 343 343 344 347
309 309 310 310 312 315 309 309 320 322 323 321 323 327 322 309 309 299 299 312 301 306 307 308 311 311 312 313 311 311 310 312 315 314 312 312 311 310 311 308 310 305 305 307 307 312 310 312 315 314 318 315 314 312 313 315 317 315 314 313 306 304 306 301 307 301 301 300 311 312 313 309 308 311 315 317 322 328 327 325 328 334 336 341 343 344 345 346
308 308 308 311 314 313 314 316 321 324 322 317 315 322 314 307 299 304 304 308 304 310 308 311 309 310 311 311 309 311 314 308 314 314 315 313 312 311 313 313 313 311 304 308 307 306 309 313 312 313 314 317 315 309 308 308 312 311 310 309 304 301 299 295 300 302 303 309 310 310 315 306 311 314 320 319 320 327 330 329 329 333 337 340 344 345 344 346
307 308 311 317 316 317 319 324 320 319 314 314 314 315 310 303 301 314 307 308 309 313 311 309 310 311 311 307 310 312 307 312 311 312 314 311 311 309 311 312 313 312 311 310 306 306 303 303 309 311 308 316 315 313 312 311 311 311 313 310 307 307 301 297 300 298 299 302 308 313 306 304 304 310 324 328 329 332 332 333 333 336 338 341 343 346 344 346
306 310 317 319 318 318 318 320 322 324 318 310 313 310 302 302 307 306 305 308 311 313 310 313 308 308 308 309 311 311 311 307 313 312 311 310 308 310 309 310 313 313 313 306 309 309 306 306 311 315 315 315 313 315 316 313 312 313 313 314 309 307 311 302 306 304 304 304 304 307 305 310 310 327 328 329 329 330 330 333 334 336 339 340 342 342 343 345
309 321 321 319 320 324 320 320 320 319 317 311 310 306 303 307 305 309 309 314 313 310 311 311 309 306 306 307 311 309 312 311 311 311 310 311 311 310 313 312 311 313 311 307 310 305 308 305 312 314 315 314 315 316 315 316 305 310 311 306 309 315 311 308 307 306 305 304 301 311 308 311 316 315 318 322 326 326 329 329 329 331 334 339 341 343 344 345
315 318 315 322 322 324 323 322 319 318 315 313 308 304 309 310 313 311 316 312 312 312 311 305 305 305 304 304 306 308 309 311 310 310 307 311 309 311 311 313 315 313 314 312 310 313 306 306 312 312 311 313 316 316 316 314 316 312 306 310 315 316 315 309 302 305 302 299 302 307 304 306 307 304 320 322 318 320 327 331 329 331 334 336 340 343 345 345
313 315 317 318 321 325 325 324 319 316 311 311 307 310 314 309 314 313 315 313 314 313 310 308 308 309 305 305 305 307 309 306 307 309 308 309 306 314 312 311 314 314 315 316 311 311 312 305 309 313 313 313 315 315 312 314 316 312 311 319 307 303 302 309 306 299 299 299 301 305 306 305 308 308 311 315 315 317 323 333 331 330 331 335 339 343 347 347
314 314 310 318 325 325 324 324 318 312 309 308 308 307 312 314 316 314 315 315 314 312 308 310 309 309 309 306 308 309 309 304 308 307 306 308 305 311 311 313 312 314 315 315 311 313 312 305 306 312 312 313 313 312 306 309 313 314 315 313 315 313 309 306 307 308 306 299 299 301 304 303 311 311 313 313 316 317 320 332 331 331 333 335 339 342 345 346
316 309 310 320 326 325 326 320 313 309 307 305 309 309 315 312 314 316 317 315 312 311 311 310 311 308 308 309 310 307 309 309 308 308 308 309 308 311 311 314 312 313 315 315 313 315 310 314 304 309 314 312 307 310 308 310 308 309 309 309 310 311 313 312 312 307 304 302 301 300 299 306 314 316 314 316 317 319 320 325 333 333 335 337 341 343 345 346
316 306 308 321 321 324 321 318 308 304 306 312 313 312 313 310 313 314 316 316 314 316 312 311 312 308 309 308 307 311 308 309 309 308 308 309 309 306 313 313 314 312 313 313 312 313 311 309 304 307 308 307 309 314 314 314 313 311 310 309 310 308 305 302 303 309 307 303 297 300 299 308 316 322 319 317 320 320 323 326 328 334 335 339 341 344 346 346
311 302 307 321 324 324 323 308 307 310 309 309 310 313 312 321 313 313 314 315 313 312 316 312 313 312 311 310 311 310 309 308 309 308 309 308 311 311 314 316 315 315 311 310 310 315 314 313 308 306 307 308 312 314 317 316 314 314 313 311 313 312 311 306 299 304 307 307 308 307 302 305 321 323 322 323 326 325 329 329 329 332 337 339 342 344 347 348
310 306 317 322 324 322 318 310 312 315 312 313 315 314 315 313 312 312 311 313 310 313 311 311 312 311 313 312 311 310 311 308 309 308 310 310 312 313 315 315 315 314 314 312 313 318 319 312 306 307 313 312 314 315 316 314 314 312 313 314 312 310 311 309 308 311 306 307 303 304 302 306 322 331 330 330 334 331 333 334 336 333 335 339 342 344 347 348
311 311 313 321 325 322 316 308 309 309 310 313 313 312 313 312 311 310 310 310 309 310 310 311 313 314 312 314 313 310 313 307 311 311 309 312 310 316 316 314 314 313 312 313 311 315 308 312 308 305 304 307 309 312 311 313 313 311 310 313 313 313 313 313 314 314 306 307 307 303 299 305 323 329 327 329 327 323 324 328 334 335 338 339 343 345 347 349
312 316 314 317 325 320 311 313 312 310 310 311 310 309 309 309 310 310 310 309 311 311 310 310 312 313 312 313 312 313 314 313 308 312 314 314 312 318 315 317 315 314 314 320 333 317 310 313 310 302 298 296 297 297 301 305 308 311 312 312 313 312 312 310 306 309 301 307 309 304 304 310 319 326 323 325 326 327 327 328 330 336 338 340 342 345 348 349
310 307 309 312 317 316 317 317 315 311 311 312 308 309 308 307 309 312 311 311 311 312 312 311 313 314 311 311 310 310 311 313 311 311 313 312 314 315 320 318 317 316 329 331 322 318 312 317 312 308 305 303 305 309 313 313 311 307 309 312 312 312 313 313 312 308 303 309 306 305 309 310 313 316 317 319 320 319 319 323 329 333 337 340 345 346 347 349
313 309 311 306 312 313 313 315 313 312 309 311 306 308 306 307 310 310 312 308 312 312 312 311 311 310 311 310 310 310 311 311 312 313 312 312 314 318 319 326 322 320 332 321 321 318 319 311 313 314 314 312 313 316 315 314 310 311 310 310 312 311 312 311 309 306 316 309 301 307 312 311 311 315 317 319 320 321 323 326 326 334 337 338 341 344 345 347
308 310 313 312 307 306 308 310 312 312 311 310 311 309 307 307 308 307 311 312 312 315 310 312 311 311 312 311 313 309 311 312 313 309 313 316 315 316 317 322 322 331 325 317 320 317 313 308 311 311 311 315 313 313 313 313 312 312 311 311 310 311 312 310 312 316 317 307 304 312 317 313 314 316 317 320 321 321 320 323 327 330 335 341 341 342 342 343
312 311 310 313 311 311 311 311 311 311 311 311 311 309 307 307 307 309 310 310 311 313 313 309 310 312 313 314 313 311 315 309 309 317 316 313 313 314 314 315 319 323 322 318 318 325 319 310 315 313 311 312 312 311 313 311 311 311 311 312 312 311 311 311 312 314 315 315 315 317 317 316 316 317 319 320 322 321 324 329 329 329 328 336 339 340 340 341
305 306 308 311 311 312 313 311 311 309 309 312 309 309 309 308 307 310 311 310 309 311 315 312 312 313 313 313 314 312 315 315 317 311 318 320 316 320 314 315 315 318 320 316 315 322 315 315 313 313 311 310 311 312 312 312 311 309 311 312 312 312 311 312 312 313 315 314 314 314 315 314 318 322 324 323 323 325 329 326 324 328 329 331 335 336 339 340
309 311 310 308 309 309 311 311 310 310 308 309 309 308 309 308 308 309 310 312 312 311 312 310 313 314 314 314 314 313 313 313 315 315 316 315 314 317 317 316 318 314 315 316 316 318 314 318 315 313 307 308 310 310 310 312 311 310 311 311 311 310 309 311 311 315 313 313 315 314 312 311 316 320 323 324 323 325 323 325 327 330 331 331 333 335 337 339
312 314 312 310 307 308 307 309 311 308 306 308 309 307 308 308 309 310 310 311 312 313 313 312 314 313 313 314 312 312 313 314 314 315 316 317 317 317 317 316 316 318 315 315 318 315 314 316 311 310 306 307 310 311 310 309 309 307 308 310 312 312 313 314 315 317 316 314 312 309 309 316 319 321 318 318 318 320 323 328 329 331 334 333 333 335 337 339
Wind_Speed
19 19 19 19 19 20 20 19 19 19 19 19 18 18 17 16 16 16 15 15 15 14 14 14 13 13 13 12 11 11 12 7 5 7 9 11 9 8 10 2 11 13 13 10 10 11 9 10 10 9 7 6 5 6 4 5 3 4 5 5 5 5 7 6 8 5 11 10 11 11 9 11 11 9 9 9 11 10 9 9 9 9 10 14 19 19 19 18
19 19 19 19 20 21 20 20 20 20 20 19 18 18 17 17 17 16 16 15 15 14 13 13 12 12 12 11 10 9 9 7 8 12 19 7 10 7 6 11 12 17 16 10 12 12 9 11 9 11 7 6 3 2 5 3 5 6 3 1 7 5 10 4 8 8 8 10 11 9 9 7 10 9 8 6 9 9 10 10 12 15 15 18 19 19 19 18
19 19 19 19 20 20 20 20 20 20 19 19 18 18 18 18 17 17 16 15 14 13 13 12 11 11 10 10 8 8 8 6 9 15 14 17 13 8 9 15 14 15 15 9 10 10 8 4 9 11 7 6 4 3 6 4 6 4 5 6 7 8 9 6 5 6 7 11 12 10 8 9 9 6 5 5 8 8 9 10 12 15 17 18 18 18 19 18
20 20 20 20 20 21 21 21 21 20 20 19 19 20 19 18 18 17 16 14 14 13 12 11 10 9 9 8 5 8 6 8 11 8 8 3 15 14 10 13 15 14 10 6 5 7 5 3 5 9 3 7 4 3 7 6 6 4 6 7 9 8 9 6 4 7 9 10 11 11 10 10 7 6 4 9 9 7 8 8 12 17 19 20 19 17 16 17
20 20 20 20 20 21 21 21 21 22 20 19 20 20 19 19 18 17 16 14 13 12 11 10 8 8 7 7 6 6 6 6 2 9 8 6 10 12 13 12 13 13 10 4 5 6 7 6 7 5 7 5 4 6 3 4 5 1 8 8 9 5 9 6 7 8 10 11 11 10 10 10 9 9 6 2 3 6 6 8 13 17 18 20 20 19 17 16
21 21 21 21 21 21 21 21 22 22 20 19 19 21 20 19 18 17 15 14 12 11 10 9 7 6 7 4 7 6 5 5 4 5 5 4 10 9 11 13 13 11 7 8 8 5 7 7 8 7 6 5 6 7 7 1 3 6 6 7 5 5 10 7 9 10 11 10 10 8 10 9 9 11 10 12 11 9 10 14 17 16 16 16 16 17 16 17
23 22 21 22 22 21 21 22 23 22 20 19 20 20 20 19 16 15 14 12 11 10 8 7 5 7 5 7 6 5 10 6 3 6 7 7 10 10 8 9 9 9 10 9 8 8 8 8 10 4 3 3 3 4 6 6 5 3 7 5 8 9 11 9 11 9 11 11 10 9 9 11 10 12 9 14 12 13 14 16 17 16 16 16 16 16 16 15
21 21 21 22 21 21 21 22 23 22 21 20 20 21 20 20 17 15 13 11 9 8 7 5 6 6 6 6 4 6 9 8 7 5 6 7 10 11 9 10 11 10 10 10 8 7 7 9 9 5 6 5 6 7 7 9 5 8 8 7 9 10 10 10 10 11 12 12 10 10 9 9 12 11 12 14 14 14 15 15 16 16 16 14 14 15 14 14
21 21 21 21 22 22 22 23 23 23 21 20 20 21 21 19 16 14 11 9 7 6 5 5 4 5 4 5 7 7 9 2 5 4 7 9 12 15 15 11 12 11 8 5 5 4 7 5 4 6 5 6 3 8 8 9 6 5 9 9 9 11 11 10 11 12 12 8 10 11 12 14 16 16 14 12 14 15 15 15 15 15 15 14 14 14 13 12
22 23 22 21 21 22 22 23 23 24 23 22 21 21 21 18 15 12 8 6 4 3 4 3 4 5 6 5 6 8 4 3 3 2 3 9 14 15 16 10 14 11 9 6 6 6 9 7 4 5 6 5 3 7 5 8 8 8 12 11 11 12 11 9 11 12 11 10 10 12 13 12 8 6 9 10 13 15 16 15 14 14 14 13 12 12 11 12
23 23 22 22 22 22 23 24 24 23 23 22 21 20 19 18 13 8 5 3 2 3 4 5 4 5 5 6 8 7 3 1 3 3 5 10 14 15 14 11 12 10 8 7 7 2 2 5 4 4 4 4 6 9 4 8 15 11 13 13 12 11 10 10 12 13 11 9 10 12 13 9 6 7 11 12 12 14 15 15 14 13 12 12 13 11 10 9
24 23 22 22 22 22 23 23 23 23 23 22 21 20 19 15 9 3 3 2 3 4 4 4 8 5 6 7 10 0 1 5 2 4 6 11 10 9 7 10 10 8 10 9 7 3 0 3 5 4 2 6 5 10 10 12 13 14 14 11 11 11 11 9 10 10 9 12 12 14 16 11 9 12 13 13 12 13 14 14 13 13 12 12 11 10 9 9
23 23 23 23 23 23 23 22 22 23 22 21 19 18 17 11 4 1 3 4 3 4 5 6 7 3 5 8 9 4 0 2 3 6 6 5 5 3 6 5 5 4 5 10 8 4 2 2 3 4 7 3 6 2 8 8 11 13 10 10 11 10 10 8 6 8 11 8 6 4 3 8 11 12 12 11 11 12 13 13 12 11 11 10 10 9 9 9
23 24 24 24 23 24 23 22 21 21 21 21 19 17 15 7 3 2 3 1 5 5 5 7 5 5 5 4 7 4 2 1 4 7 7 6 10 8 7 6 4 4 3 5 5 3 3 0 4 4 2 1 6 13 11 9 11 9 7 9 8 9 8 11 8 9 8 10 3 4 1 8 11 12 12 10 11 12 11 12 12 12 11 10 9 9 9 9
22 24 25 24 24 25 22 21 20 19 21 19 18 17 13 4 2 4 3 5 5 6 6 6 4 4 6 2 4 5 1 3 7 8 7 10 11 10 9 8 7 5 3 6 5 2 0 2 5 8 5 6 12 11 10 9 9 7 9 9 9 8 8 11 6 10 6 8 4 5 5 7 10 12 12 11 11 10 10 10 11 11 9 11 10 9 9 9
22 24 24 24 24 24 22 20 20 19 19 18 17 17 12 6 4 4 2 2 7 7 5 6 5 6 10 5 5 4 5 7 8 8 7 6 11 10 12 10 8 6 6 6 2 2 2 4 2 6 10 8 11 9 10 8 7 9 10 9 8 7 9 9 9 9 1 2 4 7 6 7 7 11 12 11 12 10 9 9 10 11 11 10 8 8 7 8
24 24 23 24 25 25 24 20 20 19 19 18 18 12 8 3 5 4 6 6 5 4 5 3 1 4 4 5 4 6 8 4 5 7 7 5 4 9 12 12 9 10 7 6 4 4 4 6 6 5 6 8 9 9 9 9 9 9 9 7 8 9 9 6 10 9 7 6 6 4 3 5 13 12 12 11 11 10 9 9 9 9 8 9 8 8 8 7
24 24 24 24 24 27 22 21 20 20 19 18 15 9 4 4 2 6 5 6 2 4 6 5 5 5 7 6 9 9 7 8 7 7 7 5 5 13 12 11 10 11 10 8 5 8 7 6 9 8 9 8 10 10 10 10 10 10 9 9 9 9 11 8 7 10 8 9 4 4 3 8 13 12 11 12 11 10 9 9 9 9 9 8 8 8 8 7
26 25 24 24 23 24 22 21 22 19 17 20 13 4 5 4 6 6 4 4 4 4 5 7 6 6 3 13 4 5 7 6 7 9 8 9 9 8 6 8 12 13 11 11 8 9 8 5 7 6 11 10 12 12 10 8 11 11 12 9 10 9 9 7 7 8 12 8 7 6 5 9 13 11 11 11 10 9 8 8 8 8 8 8 8 8 7 7
27 25 25 23 24 23 23 22 21 19 15 14 4 4 5 5 5 4 6 6 9 13 10 1 9 3 3 8 8 7 6 8 10 8 10 7 9 12 12 12 13 14 11 11 12 12 4 11 11 11 10 12 12 14 12 7 7 10 12 12 11 11 10 6 6 7 10 7 6 6 4 9 11 12 11 11 10 9 8 9 8 8 8 8 8 8 8 7
25 26 24 23 24 24 24 23 22 18 14 7 7 5 5 6 9 5 9 11 13 11 10 9 9 8 3 3 5 12 11 9 8 10 11 9 10 14 11 12 14 12 12 13 11 7 7 12 12 12 14 14 13 8 3 3 5 9 9 10 8 9 9 11 8 7 9 9 6 6 6 9 10 11 11 10 11 10 10 9 9 9 9 7 8 8 7 7
26 25 25 23 25 25 25 24 22 19 11 5 5 7 3 3 5 3 4 6 3 8 10 9 4 8 6 6 1 2 8 10 11 13 8 10 12 14 13 14 15 14 11 6 7 9 11 13 12 15 4 5 4 8 8 8 9 10 10 10 8 8 5 8 7 8 7 9 4 8 8 8 10 10 9 10 10 8 9 9 8 9 9 7 8 8 7 7
26 26 24 25 25 26 27 24 22 16 3 4 5 9 2 4 1 1 5 7 12 8 9 9 10 10 8 4 7 6 13 13 15 15 13 12 14 13 15 14 15 11 12 14 10 10 12 11 16 10 7 8 7 7 10 8 9 9 9 8 9 8 10 8 8 9 8 8 5 9 9 7 8 6 9 8 8 8 6 7 7 6 8 9 9 8 8 8
25 26 25 24 25 27 29 25 23 7 5 6 9 9 4 1 2 4 5 6 7 5 9 9 10 8 10 10 9 12 13 12 13 17 14 13 14 7 12 15 16 12 13 15 15 11 11 11 8 9 9 11 11 11 11 9 9 9 9 9 9 11 13 10 10 10 8 8 6 8 8 7 9 10 9 9 7 7 10 8 8 7 7 7 6 7 8 8
25 27 26 25 25 27 29 26 6 0 6 10 10 5 1 2 3 4 6 6 8 6 5 5 4 6 7 3 13 13 13 8 12 13 14 15 14 8 11 11 9 12 13 15 15 12 8 8 10 9 11 11 12 12 13 12 10 10 11 11 11 8 11 11 13 12 8 8 9 11 8 7 8 12 11 10 9 10 9 10 11 10 10 8 8 8 7 8
25 27 25 23 25 26 32 7 4 7 11 7 3 4 1 4 3 5 5 4 7 6 6 8 7 9 8 10 14 12 11 9 12 12 13 13 10 12 6 8 8 13 15 15 12 8 4 8 7 10 12 13 14 13 15 14 9 9 10 15 8 8 8 9 16 11 10 9 9 12 9 7 8 12 13 11 12 12 10 11 12 11 10 11 10 10 10 10
25 27 23 21 20 22 13 2 7 12 10 3 4 1 3 5 1 8 5 4 8 7 9 6 8 5 5 15 15 12 12 13 7 10 15 11 13 3 11 9 9 4 8 8 5 9 4 9 7 7 12 14 13 12 10 13 9 6 6 5 5 8 10 12 13 12 6 2 6 12 8 8 6 7 13 14 13 13 13 13 13 12 13 13 12 12 11 11
26 24 22 20 18 12 8 11 12 8 7 4 3 3 5 4 4 7 5 5 4 4 6 6 2 3 5 16 14 14 4 20 12 13 15 13 10 10 12 13 13 11 10 8 11 8 12 11 11 12 13 11 12 7 11 10 7 5 4 6 7 8 8 11 10 8 3 5 6 8 8 9 8 2 7 13 13 14 16 16 15 15 14 14 14 13 13 12
25 23 23 20 22 22 9 7 6 8 3 3 4 5 4 2 8 6 3 7 2 3 5 7 1 8 7 12 16 9 9 16 9 15 8 10 9 3 13 12 12 13 12 16 5 10 4 8 12 11 11 10 8 8 8 6 6 4 5 7 7 4 6 7 6 4 4 8 10 8 7 9 9 7 6 10 13 14 17 18 17 17 16 15 15 15 14 13
25 24 23 19 18 5 5 8 11 12 8 8 9 7 5 6 7 7 5 7 4 5 5 4 8 12 13 16 14 11 10 11 4 13 12 11 13 7 3 6 7 10 11 10 9 7 5 2 4 5 5 6 12 9 6 4 7 12 9 10 8 6 4 2 1 3 4 10 9 11 11 10 10 6 8 9 10 14 13 14 14 16 16 16 15 15 14 13
25 23 19 17 8 5 7 9 7 6 6 6 7 7 4 6 8 5 8 1 3 6 4 10 7 11 17 18 14 13 9 13 11 16 14 12 12 10 6 8 5 7 9 10 7 7 6 5 7 3 1 8 12 11 6 5 13 12 8 8 7 5 4 5 5 4 8 9 4 3 8 10 12 7 6 9 10 11 12 11 16 18 19 17 15 15 15 14
27 26 22 14 12 7 8 2 5 2 2 7 7 5 5 8 7 9 5 6 7 7 9 11 8 13 17 17 13 14 10 12 12 16 14 13 12 12 12 10 11 11 10 12 10 10 10 10 6 8 3 10 11 10 7 8 10 8 8 9 8 5 6 7 5 9 8 8 5 1 5 9 12 12 13 5 7 8 8 8 10 16 18 18 17 17 14 14
28 26 30 17 12 10 16 16 7 6 8 10 7 6 7 8 9 9 7 3 1 1 5 3 11 14 16 16 14 15 11 13 14 16 15 15 12 12 15 11 15 11 11 13 12 13 9 7 9 8 6 7 11 10 8 8 8 10 9 10 9 6 8 6 8 7 7 5 5 2 3 10 9 9 11 15 11 9 9 8 8 9 14 17 17 16 15 14
29 28 16 6 8 12 8 5 6 8 8 7 8 7 8 9 8 2 7 6 4 3 2 3 9 11 16 13 13 13 12 10 16 13 18 13 13 14 12 9 8 10 9 14 10 14 10 10 10 12 9 11 12 10 13 8 12 11 10 10 10 7 6 8 7 8 10 4 6 5 4 5 9 3 5 4 6 1 5 7 7 6 8 12 15 16 17 16
33 26 14 10 9 12 14 11 6 3 5 7 8 8 9 9 9 5 9 7 5 1 4 3 9 12 14 14 11 16 11 8 13 13 14 13 14 12 14 12 12 11 6 10 7 8 12 8 12 8 4 16 14 2 7 10 9 8 6 4 8 10 5 9 6 5 7 2 6 7 6 3 4 6 4 3 3 4 4 7 8 8 7 8 12 15 16 16
23 6 6 6 5 4 11 8 10 6 6 9 9 9 11 9 6 5 1 4 2 3 2 5 7 13 12 12 7 15 3 4 14 10 13 15 14 13 13 11 12 14 8 9 9 10 4 6 10 8 6 10 12 8 6 4 9 9 7 10 3 5 5 2 4 1 4 5 10 5 7 9 6 10 10 7 6 7 8 9 10 10 10 10 11 13 16 15
9 11 6 3 7 6 8 9 8 7 6 10 10 10 10 9 8 7 3 4 6 5 6 8 11 12 13 12 11 15 13 8 14 12 11 14 13 15 15 11 11 15 13 10 8 8 8 6 9 11 10 2 2 6 5 3 5 7 10 7 7 4 4 4 7 5 6 7 3 4 8 8 5 3 4 5 7 5 7 9 10 10 10 12 12 12 14 16
11 8 8 7 1 3 6 9 11 6 8 10 12 11 4 9 2 7 4 7 5 3 5 9 5 9 11 12 13 17 15 13 14 14 10 15 6 13 11 10 11 11 14 13 8 9 10 7 8 7 7 7 5 7 7 3 3 6 7 12 11 8 11 7 6 8 8 7 8 7 6 9 6 3 7 7 5 3 5 7 8 11 13 13 13 14 14 15
8 6 4 4 2 4 6 11 10 9 9 11 10 11 9 10 2 4 5 7 5 6 7 5 5 9 8 11 10 16 15 15 14 14 12 12 12 11 14 11 12 14 14 14 11 4 8 9 9 5 7 8 8 10 11 10 6 2 2 8 3 7 4 8 7 7 3 10 5 3 5 6 8 4 4 1 1 3 2 6 8 10 12 12 12 13 14 15
6 6 3 6 4 3 8 11 8 8 11 13 10 9 3 8 8 5 5 4 4 5 4 3 4 4 8 8 8 12 14 18 13 13 15 10 10 8 9 10 7 14 12 14 12 7 7 6 5 8 6 9 10 9 12 11 11 11 9 8 8 6 3 5 1 6 5 7 6 7 5 4 5 5 2 2 2 2 3 5 5 7 9 11 12 12 13 15
4 5 1 5 6 7 8 8 9 12 12 10 10 5 7 7 5 5 4 3 7 7 9 8 4 6 3 8 9 8 10 13 12 11 12 10 13 8 10 11 8 11 7 10 13 9 8 8 9 9 9 8 10 11 4 5 10 13 12 11 11 9 8 8 7 4 5 5 3 5 7 5 8 3 4 2 3 3 3 4 4 6 8 9 11 13 14 14
5 6 4 4 6 5 6 10 8 9 9 11 8 7 3 1 7 7 6 3 6 7 5 7 7 8 5 7 5 10 9 13 13 11 12 11 13 12 6 2 11 11 11 10 12 12 9 5 11 8 10 10 4 5 3 3 4 4 11 12 12 10 9 8 8 6 5 5 4 5 7 5 7 5 5 2 2 3 1 3 5 4 5 8 10 12 12 13
5 6 4 4 1 6 7 8 8 7 10 4 6 4 2 5 5 2 5 3 7 4 7 7 6 6 8 7 3 7 11 10 13 13 10 14 9 10 7 9 7 12 12 10 13 5 2 8 10 9 4 6 6 4 3 1 4 7 9 8 7 12 10 10 9 3 6 4 6 5 8 4 7 4 2 2 1 3 3 4 6 5 5 7 10 12 13 13
5 6 2 6 3 5 7 9 8 9 10 4 6 4 3 4 4 6 7 5 5 3 5 4 5 8 4 2 4 6 10 8 8 8 9 8 5 7 10 8 11 8 11 9 10 12 10 8 10 7 6 8 5 4 6 4 7 10 10 12 12 9 7 0 5 4 9 6 9 5 8 5 7 2 2 2 4 6 6 6 5 6 5 6 8 10 11 12
6 4 5 3 5 6 9 4 5 8 10 8 7 10 7 7 2 4 4 5 3 6 6 6 4 4 4 1 4 3 4 6 5 9 4 8 4 4 7 5 10 8 13 6 6 11 12 9 10 11 12 12 12 12 11 10 12 10 13 10 12 13 11 9 8 6 8 4 7 7 8 3 8 3 4 5 4 5 6 6 5 6 6 5 5 9 10 12
3 3 4 5 3 6 5 3 5 5 4 7 7 5 3 6 6 3 3 4 2 5 7 9 8 6 7 6 7 7 7 6 6 6 7 8 5 4 4 6 8 9 3 5 4 9 6 5 11 12 12 11 11 10 9 11 10 14 16 16 15 16 15 12 8 6 9 4 7 6 11 12 7 4 4 3 4 6 8 8 8 7 6 6 5 7 9 11
5 3 3 1 1 5 3 2 4 6 6 2 5 2 7 7 1 2 3 5 3 4 5 6 4 7 5 8 8 8 8 8 5 4 11 9 7 5 5 3 7 8 5 5 7 6 3 7 12 13 13 13 4 2 6 13 13 15 15 16 16 15 14 14 10 11 5 5 10 3 5 10 13 12 7 6 6 7 7 7 7 7 7 8 9 9 10 10
3 2 3 3 4 1 6 4 4 3 0 5 1 1 2 5 5 4 4 1 2 2 5 5 7 4 5 5 5 8 9 8 7 10 5 0 7 8 7 7 7 8 8 8 10 8 8 10 12 15 16 7 3 4 5 9 12 12 14 14 16 16 15 16 15 8 8 10 9 3 4 7 10 12 9 7 8 9 10 9 8 7 6 7 9 10 11 12
3 3 1 3 4 2 5 5 5 3 2 3 2 3 5 5 1 3 3 2 4 1 3 5 4 4 4 4 4 5 7 10 10 4 2 5 9 8 7 8 5 9 9 7 9 2 4 9 4 12 10 8 5 6 6 11 9 11 13 13 14 15 16 16 14 9 9 8 7 3 5 9 13 13 11 10 8 9 8 7 7 9 9 8 9 11 12 12
5 6 2 5 4 2 3 2 2 4 5 1 4 2 1 0 0 2 2 2 2 2 5 4 6 7 5 3 3 4 6 7 6 3 3 4 5 4 7 3 4 7 8 7 9 4 7 3 4 7 8 7 6 5 7 10 10 12 11 12 13 13 13 13 10 6 5 7 7 7 8 11 10 7 5 6 6 6 7 10 12 9 8 9 11 12 12 13
4 4 4 5 4 3 3 1 2 3 3 4 5 4 3 2 3 3 1 2 5 5 6 6 8 6 1 1 3 5 6 7 6 5 6 5 3 5 4 4 6 6 8 7 7 7 9 2 4 7 9 7 6 8 8 8 10 10 10 10 11 12 12 9 8 8 8 7 6 7 9 9 8 4 3 6 8 9 11 12 10 7 7 8 11 11 11 12
4 3 4 4 3 2 3 1 2 4 4 5 5 3 2 4 3 4 3 2 1 4 6 7 7 6 3 3 6 8 10 9 8 8 6 6 6 7 5 6 6 4 5 7 6 7 8 5 7 7 10 8 9 7 10 9 9 9 11 12 13 12 9 8 7 6 7 6 7 8 9 6 6 6 11 11 11 11 11 9 9 7 6 8 9 10 10 11
Wind_Direction
340 338 338 337 334 333 329 329 328 326 327 328 328 326 325 325 323 319 316 309 306 305 303 303 307 309 314 315 317 319 314 295 214 227 232 247 70 124 167 87 159 153 174 181 142 159 173 191 200 179 206 202 211 236 145 216 241 233 215 171 115 105 113 144 120 62 114 137 135 154 138 124 123 124 108 114 103 101 100 89 92 81 82 106 118 128 136 141
338 336 336 336 334 331 329 328 327 326 325 326 324 324 322 324 322 319 314 311 307 303 303 303 305 309 313 314 314 327 312 266 253 250 242 88 145 155 165 154 153 161 181 173 171 186 177 188 191 182 202 224 151 220 171 159 201 232 193 141 104 99 85 91 80 110 152 123 135 139 136 126 113 134 150 126 118 113 109 103 109 105 105 112 124 133 137 145
335 336 336 333 331 329 328 327 326 325 324 322 324 323 323 323 320 316 314 309 306 305 301 304 306 306 310 314 311 304 291 259 241 251 252 160 148 165 147 156 167 178 194 177 197 210 236 184 176 194 208 250 174 175 214 137 210 210 285 94 88 80 111 89 124 102 88 122 129 126 116 107 124 119 182 124 132 135 113 124 127 124 132 133 134 140 144 150
336 335 334 332 328 329 327 326 325 324 324 324 323 323 323 321 318 315 311 308 305 303 304 302 303 307 305 307 333 302 276 270 256 237 79 97 162 159 176 167 180 195 221 251 204 228 241 194 203 226 241 247 144 219 199 131 243 119 263 97 104 118 122 90 106 96 107 121 125 119 116 113 110 115 153 126 137 105 105 127 143 140 142 140 141 145 150 153
334 334 331 329 328 328 326 324 326 328 324 322 323 320 323 321 317 313 310 305 303 302 303 301 301 298 307 292 288 271 266 260 196 84 68 115 167 165 167 171 178 194 224 198 206 221 222 219 204 222 248 198 185 196 141 162 301 127 52 70 101 112 95 98 97 101 103 109 123 129 128 103 111 81 85 246 88 70 85 116 133 138 145 145 148 150 153 156
334 333 331 327 327 327 327 326 328 326 323 321 320 321 323 320 316 312 307 304 299 302 300 297 294 290 282 307 274 257 247 223 52 82 79 128 153 173 173 169 184 215 202 194 216 198 210 195 218 206 199 223 184 190 124 166 226 120 106 87 73 79 104 104 106 111 125 125 116 114 103 120 97 85 64 65 67 81 84 115 127 135 143 143 145 149 154 159
336 332 327 327 327 325 326 325 327 326 323 320 318 322 323 320 316 311 304 300 296 294 296 292 286 270 275 274 252 261 234 289 182 100 136 159 173 172 175 168 183 210 197 199 206 204 199 210 227 188 207 166 180 125 136 159 226 153 113 99 96 113 105 109 111 130 110 111 111 118 137 113 114 88 79 79 83 88 103 117 128 134 141 145 150 155 160 160
333 330 328 327 325 325 326 328 328 326 324 320 318 322 322 320 316 309 302 294 294 288 286 277 275 265 273 244 225 213 229 241 74 112 115 163 174 176 168 179 190 192 201 212 194 202 198 212 201 180 222 211 129 161 146 155 176 120 122 117 104 105 109 118 123 112 113 113 120 117 103 89 99 103 97 89 97 104 112 123 127 134 141 149 151 156 156 159
331 328 327 326 326 326 327 330 328 327 324 322 320 321 322 320 316 310 298 291 286 284 271 267 247 268 222 286 257 261 221 48 38 82 142 161 167 170 175 172 192 193 198 190 221 201 222 172 211 239 147 158 177 146 181 159 122 112 121 132 125 116 120 122 121 118 111 111 114 114 107 108 105 100 85 101 103 113 121 125 131 136 144 149 152 153 154 162
333 331 328 326 326 326 327 330 330 328 325 324 322 322 323 316 315 308 297 281 275 278 273 241 233 213 231 243 238 236 88 337 77 101 153 167 159 164 186 178 180 188 182 182 186 206 229 152 237 145 114 92 210 150 169 229 106 131 133 129 124 120 123 130 117 113 109 107 119 119 120 116 126 148 107 109 116 121 126 128 135 140 143 148 148 151 155 166
334 332 329 327 326 325 327 330 331 328 327 324 323 323 321 322 318 300 282 250 250 238 225 219 182 214 233 241 227 207 59 227 61 96 156 160 163 172 183 181 187 186 189 167 190 232 100 155 160 140 223 111 166 139 195 94 130 131 122 120 121 123 121 121 118 111 112 111 118 116 110 116 109 114 116 128 130 129 126 132 136 136 137 142 145 149 157 166
334 331 328 328 327 326 329 330 329 329 327 323 323 324 323 328 328 315 227 201 196 205 192 193 191 250 278 240 227 25 293 25 110 126 138 155 164 178 183 177 187 195 181 175 171 158 328 127 208 237 169 181 134 116 113 141 134 139 138 132 127 132 126 145 135 125 123 120 130 127 122 115 115 107 122 131 137 135 131 131 135 132 133 139 141 145 160 168
331 331 330 328 327 327 327 328 329 328 326 323 323 324 326 333 350 223 159 187 164 176 182 171 213 261 274 210 229 70 117 37 135 149 149 176 157 168 161 178 195 200 215 177 157 153 108 159 256 217 107 249 131 248 128 162 140 153 155 133 147 145 138 142 136 137 138 133 145 227 107 93 107 122 130 140 142 139 136 136 136 137 142 141 146 149 159 164
331 331 331 329 327 327 326 327 327 326 325 324 323 322 322 330 31 99 149 209 163 166 178 184 251 254 262 276 88 33 356 195 157 181 186 168 157 145 161 169 176 176 219 143 113 123 161 257 249 104 49 202 127 126 146 153 164 172 147 164 164 177 151 158 171 149 159 140 230 207 76 109 125 130 138 148 149 149 142 139 140 144 145 147 153 154 162 162
330 331 330 329 327 327 326 326 326 324 325 322 321 322 312 282 114 118 118 133 179 174 183 203 244 259 227 131 86 58 29 212 184 186 173 176 153 146 158 160 161 145 118 118 127 124 224 225 198 168 125 105 133 166 138 163 180 152 183 189 166 193 143 162 173 179 179 155 244 249 89 106 133 135 143 152 158 159 146 144 145 147 152 153 157 161 166 165
329 330 329 329 327 326 326 326 325 324 324 321 321 315 295 237 143 124 135 70 155 183 191 231 204 253 294 194 105 136 191 194 182 164 169 204 167 157 152 155 139 142 161 110 102 151 198 222 245 94 128 166 167 165 157 151 189 184 214 164 186 194 151 173 183 191 208 168 188 282 94 130 132 139 145 153 162 162 152 152 150 152 156 156 163 166 166 165
330 328 328 327 327 327 327 325 325 325 325 320 319 302 281 188 163 149 130 157 167 206 232 292 332 214 274 73 149 202 177 151 91 156 169 214 266 154 152 147 156 145 137 122 151 185 167 199 124 171 185 187 175 168 173 187 172 193 225 191 179 196 155 198 155 197 189 234 157 223 157 101 129 147 148 157 163 169 159 160 157 159 161 159 166 175 171 177
329 327 327 326 325 329 325 324 325 325 326 319 312 286 258 201 172 171 174 204 175 220 235 259 267 264 222 170 200 176 124 139 176 152 168 168 227 159 162 162 152 153 154 150 157 207 176 177 189 175 180 201 185 188 208 190 189 188 199 195 174 202 172 177 168 174 202 188 232 183 89 133 137 145 156 156 166 173 166 166 162 164 164 168 176 178 176 178
328 327 326 325 325 325 325 324 324 326 326 320 303 250 243 252 236 249 241 161 204 179 211 176 194 217 47 172 125 116 153 121 138 163 158 166 176 171 166 160 162 157 174 188 156 207 176 202 203 192 195 184 197 209 213 211 183 198 201 180 179 199 186 196 180 153 192 189 215 188 176 151 146 149 157 157 164 177 175 168 166 172 167 173 179 183 182 180
328 326 325 325 326 325 324 324 322 324 331 320 200 210 195 212 194 170 198 223 241 259 310 281 213 316 192 153 161 85 101 167 157 185 153 157 169 171 163 169 162 187 175 198 157 205 177 205 195 198 198 189 200 215 225 258 185 197 198 199 187 195 182 184 169 181 192 207 226 196 177 161 157 154 158 161 159 174 187 172 180 176 177 176 179 181 185 178
326 326 325 325 327 325 323 323 321 319 327 280 272 251 318 3 331 353 333 273 244 251 262 244 236 252 338 59 139 165 157 177 204 163 175 173 180 167 161 176 176 188 193 194 173 132 214 216 207 205 207 199 200 205 225 218 208 207 204 208 196 207 187 178 183 175 185 226 169 199 195 172 161 157 158 162 168 179 183 185 187 182 182 181 181 182 182 180
325 324 326 326 327 326 321 321 318 319 308 260 249 277 310 6 358 343 282 300 214 231 232 249 247 245 244 232 162 250 198 168 187 169 151 195 172 195 155 194 179 196 168 184 144 178 205 219 206 210 156 80 130 202 208 212 199 200 211 200 222 196 95 136 173 176 184 227 191 187 199 171 163 160 160 173 182 174 181 188 188 186 184 180 186 187 179 181
326 326 326 327 327 325 322 316 316 315 274 215 262 271 322 19 299 273 238 272 275 226 224 216 214 223 214 185 199 194 195 186 176 171 171 207 171 218 160 198 186 187 174 194 195 185 205 208 215 181 145 171 161 194 206 208 221 204 202 208 209 166 182 188 182 183 186 217 210 186 211 160 163 167 174 185 186 164 172 182 187 191 192 192 192 186 185 186
325 326 326 327 328 325 319 318 306 275 216 280 285 278 28 320 276 183 229 278 307 220 215 210 225 209 194 190 174 192 200 179 183 174 166 191 184 185 184 200 191 188 189 192 208 199 210 199 144 144 173 184 186 188 199 211 212 217 229 218 226 170 206 234 167 181 178 206 255 180 216 184 190 187 187 183 187 181 176 181 194 197 206 209 196 197 192 192
325 328 327 327 330 326 317 317 282 226 327 277 249 245 75 305 282 239 279 269 224 228 134 194 213 221 161 52 152 191 198 167 200 168 170 194 175 168 198 195 213 193 193 191 206 209 166 91 131 157 177 194 195 192 205 210 213 203 219 243 250 230 215 222 147 166 187 196 208 197 215 224 191 202 198 175 184 198 187 193 197 192 194 197 201 198 192 197
324 327 327 328 330 332 309 296 104 339 312 291 44 132 324 303 273 242 267 271 270 139 167 195 177 158 156 170 163 191 181 190 192 167 173 202 171 203 134 201 219 188 197 183 202 214 125 123 159 175 181 193 200 207 200 215 227 204 186 211 236 263 227 177 167 186 212 220 181 212 231 228 191 201 200 187 193 196 191 205 203 195 194 196 206 203 195 192
324 325 325 328 331 343 331 24 355 307 283 128 111 357 308 290 261 220 250 217 249 139 172 79 196 121 246 156 172 170 187 167 130 153 178 184 187 203 204 182 186 277 167 180 205 203 155 174 169 201 192 196 201 212 178 211 232 209 57 176 192 216 187 181 192 210 214 198 153 210 217 251 234 213 206 195 197 200 202 205 211 201 199 200 202 200 198 194
322 323 322 325 326 331 272 305 309 294 297 40 354 321 306 304 241 234 249 273 215 148 151 165 345 122 228 165 169 191 72 131 169 173 190 175 208 161 242 178 198 172 163 181 199 116 185 166 187 182 195 198 205 208 162 199 249 45 94 140 173 192 193 195 201 204 121 202 206 206 205 237 239 228 187 193 207 207 210 208 207 208 203 202 202 202 197 198
320 320 322 323 322 297 271 229 282 269 348 7 337 319 305 259 238 252 276 261 84 205 4 147 343 190 148 168 187 204 145 164 177 157 154 177 212 248 207 189 200 170 178 202 219 136 175 196 188 194 190 193 84 92 131 164 198 127 107 114 113 141 185 187 203 199 194 219 222 220 198 253 251 194 187 195 222 218 215 211 209 205 205 201 202 201 199 194
317 318 321 326 319 238 202 222 238 246 297 307 304 297 283 239 229 220 188 247 130 166 191 73 208 164 163 173 185 186 186 178 91 143 170 184 178 231 314 323 175 165 187 203 262 109 107 67 3 234 233 82 105 77 78 79 92 140 134 127 131 140 134 178 237 238 212 232 240 206 198 240 266 202 205 202 216 220 221 212 210 205 205 204 203 200 197 194
315 314 315 321 294 321 316 264 241 247 242 282 279 270 244 224 241 236 217 68 273 92 175 173 151 161 171 180 181 186 201 171 161 162 167 189 177 214 180 170 218 199 184 189 183 152 157 144 186 143 181 129 109 99 83 130 140 157 161 150 138 121 160 188 181 202 229 234 204 168 221 210 252 249 205 213 231 225 230 219 206 207 202 201 199 200 198 193
315 313 307 301 261 271 236 309 51 351 357 309 286 235 224 231 212 226 200 114 251 135 206 169 167 180 178 184 186 177 180 173 167 173 174 185 175 190 185 187 180 178 188 185 167 158 171 171 123 131 159 159 145 121 107 141 168 195 174 177 198 161 192 196 184 210 215 263 104 187 191 224 235 262 281 262 211 219 225 238 219 207 205 198 197 197 194 192
315 312 306 282 243 214 232 255 313 306 310 309 280 225 226 249 235 204 233 180 142 249 133 244 173 184 182 184 187 178 181 184 170 184 184 183 191 195 192 216 180 204 186 184 167 183 149 117 162 135 175 214 178 180 153 177 190 201 192 193 212 193 208 225 214 236 260 165 138 167 167 257 289 257 235 258 250 223 214 216 231 220 210 203 196 191 191 191
313 312 304 271 216 218 225 221 252 267 272 280 247 204 241 251 239 31 248 204 68 136 122 203 169 192 186 195 175 172 176 177 174 182 189 179 200 188 190 230 234 208 259 175 195 186 168 175 173 158 185 178 207 203 179 198 184 202 207 201 221 228 230 226 224 231 233 271 118 133 218 253 252 81 97 60 40 350 207 221 213 219 222 209 201 193 190 188
311 298 267 262 235 238 232 230 239 236 218 229 215 220 229 235 251 216 208 203 179 235 192 122 204 187 184 207 165 183 203 160 196 173 194 189 195 200 189 193 200 249 187 192 182 214 197 200 148 163 62 170 199 102 204 197 197 193 223 239 234 235 208 257 8 294 289 188 185 165 241 211 248 113 131 136 137 155 189 209 218 214 209 209 201 201 194 187
304 311 281 257 231 203 197 205 210 219 212 219 218 210 224 230 230 205 10 6 96 281 88 186 214 199 188 196 161 196 153 248 175 203 195 205 196 207 192 187 195 205 193 218 137 208 169 200 131 128 167 195 196 172 186 217 219 155 202 213 231 9 256 235 201 14 279 283 265 161 228 229 250 248 225 199 231 228 207 207 212 216 215 210 209 203 198 187
311 313 276 217 226 179 167 179 177 186 209 232 221 222 227 233 264 305 36 309 24 324 248 213 185 213 188 193 188 195 179 227 174 203 187 199 203 213 194 195 195 193 223 229 162 238 212 151 147 160 162 122 48 191 157 186 324 149 215 191 98 42 342 240 267 140 241 256 271 185 246 249 218 270 127 170 235 228 210 217 217 211 209 208 208 205 196 189
311 291 267 263 209 142 172 174 168 181 208 225 225 234 201 247 178 282 346 286 233 213 280 243 122 237 198 201 189 189 175 209 163 202 203 177 214 187 198 199 180 214 211 224 259 167 231 178 148 177 173 134 171 168 165 153 283 255 297 130 207 167 215 184 252 240 259 241 266 193 230 262 255 203 168 173 235 228 220 202 210 207 209 210 203 199 194 187
272 283 252 90 18 162 162 174 181 174 205 221 224 217 214 241 246 260 302 309 272 298 262 226 290 182 260 210 190 189 173 206 166 199 208 170 216 164 214 203 186 209 214 216 225 170 198 243 135 168 171 151 179 196 206 186 172 235 250 191 233 254 247 180 207 293 300 288 293 232 183 261 183 258 86 326 125 279 239 190 218 216 211 209 203 194 190 187
274 272 180 35 97 144 162 178 176 184 213 224 213 229 162 211 229 243 262 267 270 252 241 292 202 250 203 255 220 186 179 209 183 196 216 148 212 137 207 190 212 185 211 207 227 186 203 239 229 140 132 160 200 187 221 192 190 190 211 207 189 222 21 305 135 255 273 291 284 303 253 239 125 111 173 175 252 221 222 219 213 221 214 206 200 194 188 189
269 266 41 53 86 132 167 191 187 195 210 229 256 251 175 215 198 212 229 226 275 250 280 293 305 246 200 200 221 219 181 210 204 202 200 168 207 176 200 199 196 173 177 195 220 188 218 184 224 148 186 198 212 190 266 303 204 198 204 212 201 188 193 223 218 167 231 242 260 247 260 290 117 167 154 222 197 197 199 241 231 218 213 201 196 194 188 190
271 247 103 85 134 208 248 187 195 200 222 224 229 217 200 146 243 247 257 216 245 274 204 273 261 268 251 237 260 183 204 197 200 210 192 219 181 245 113 184 191 166 183 191 201 190 231 180 229 182 202 205 119 73 14 313 313 287 224 221 205 213 223 228 264 166 208 225 285 277 297 282 101 135 171 177 171 203 248 259 250 231 211 197 195 195 190 191
260 302 55 151 175 235 252 210 182 204 223 209 43 244 207 218 244 146 252 218 264 225 266 242 254 253 224 246 199 218 201 203 200 208 189 213 198 203 125 177 173 183 209 189 199 131 54 204 210 223 122 82 113 101 123 48 274 231 217 261 236 225 219 239 252 129 236 137 234 224 251 277 119 103 133 132 209 259 248 256 264 255 214 199 192 192 187 186
310 295 225 154 194 218 246 210 191 207 218 193 245 259 202 283 231 222 226 225 259 236 261 275 244 238 314 300 244 236 185 215 180 226 205 204 197 81 143 170 181 192 211 162 212 147 214 195 234 182 195 195 181 184 183 166 214 230 229 214 231 248 240 170 84 131 254 207 253 267 269 281 115 118 163 162 212 224 221 227 234 253 242 213 194 193 187 185
289 245 253 249 188 201 222 269 261 208 206 223 210 225 204 208 229 302 309 262 259 267 277 251 298 350 261 290 254 253 197 297 171 197 331 190 155 127 146 184 196 215 215 37 343 152 222 168 199 210 207 200 203 204 201 192 209 217 234 216 205 216 199 211 217 186 241 190 216 245 260 283 122 168 164 183 205 228 244 257 239 227 241 244 200 192 190 185
304 271 156 186 193 192 250 305 289 299 225 207 221 216 228 232 162 157 255 242 282 276 268 286 286 275 270 229 219 210 210 205 281 158 204 183 152 153 139 195 206 222 79 106 194 181 225 190 204 224 223 220 221 219 204 219 196 213 203 209 202 212 217 218 246 228 238 148 217 215 246 282 261 196 187 195 229 256 264 245 237 234 222 216 218 206 195 191
301 288 349 181 162 220 212 220 243 236 249 165 231 134 217 234 292 198 140 237 111 321 285 255 280 265 217 228 217 209 199 201 200 229 200 204 145 119 144 215 189 217 119 186 211 200 179 212 208 220 236 246 272 165 176 217 229 211 216 212 210 205 206 216 214 241 151 156 249 182 177 249 264 278 300 281 286 286 275 281 272 241 225 217 204 199 201 198
271 58 309 26 298 148 212 158 353 252 256 229 207 224 240 232 218 230 163 188 316 45 284 161 227 240 315 319 318 224 175 209 189 210 160 271 164 148 156 171 177 156 178 204 197 209 209 224 203 218 221 218 234 228 191 220 234 235 228 210 201 197 199 214 216 207 175 243 264 95 192 229 264 282 298 282 291 288 284 287 291 290 261 223 209 206 200 197
333 352 41 338 268 48 356 357 321 307 188 240 149 231 213 238 170 37 343 315 230 108 0 251 155 359 324 316 292 260 175 204 193 182 258 181 212 180 169 147 142 164 190 178 188 201 229 231 181 215 220 210 195 215 205 230 220 229 228 211 201 196 200 212 218 214 224 235 266 199 181 250 276 290 293 294 295 289 290 291 279 260 252 237 218 212 207 201
35 339 23 342 272 321 344 311 286 246 206 122 235 117 305 276 197 59 146 313 235 98 5 274 346 342 336 307 262 279 36 16 359 187 61 307 178 251 212 237 141 176 185 185 185 168 237 154 186 193 213 195 179 179 203 221 211 219 209 202 199 199 205 210 224 189 212 244 252 261 267 274 280 289 262 279 283 282 271 268 270 274 262 242 232 224 215 208
354 344 321 310 267 45 299 301 245 243 196 174 228 123 226 97 48 3 52 44 15 37 15 3 351 330 323 185 120 50 21 356 325 326 326 315 281 41 294 117 340 177 190 171 197 157 214 173 198 195 223 187 175 190 181 201 210 202 187 189 187 189 198 183 210 182 213 224 230 248 259 268 271 257 276 282 274 256 258 259 265 271 262 251 240 235 224 216
304 181 254 285 284 59 289 175 223 243 198 54 6 57 325 69 11 332 194 135 340 35 13 345 349 313 178 156 49 6 340 320 307 306 312 300 291 290 281 294 315 323 189 191 180 193 203 178 188 192 223 210 157 192 180 188 201 207 198 193 191 195 212 202 204 181 218 243 243 249 263 285 337 322 291 289 286 281 274 269 268 268 266 259 250 239 232 219